Location: Boiro
(42.6475°N, 8.8834°W)
Time: 19:05:53
(UTC+01:00)

Tiros 1 despin weight - Pass Details

Date: 01 December 2021
Orbit: 592 x 641 km, 48.2° (Epoch: 27 January)

Event Time Altitude Azimuth Distance (km) Brightness Sun altitude
Rises 22:18:17 0° 288° (WNW) 2,833 ? -46.2°
Enters shadow 22:18:43 - 287° (WNW) 2,678 ? -46.3°
Reaches altitude 10° 22:20:56 10° 274° (W) 1,934 - -46.7°
Maximum altitude 22:24:23 22° 223° (SW) 1,307 - -47.3°
Drops below altitude 10° 22:27:52 10° 171° (S) 1,946 - -47.9°
Sets 22:30:33 0° 157° (SSE) 2,855 - -48.4°
